sat.trackr.live / text

‹ back to catalog

STARLINK-30195

NORAD 57406 · 2023-102C

PAYLOAD ACTIVE UNKNOWN

§ Identity

Operator
Country
US
Launch date
2023-07-20
Launch site
AFWTR
Launch vehicle
Mass (kg)
RCS (m²)

Purposes: comms

External: N2YO · Heavens-Above · Gunter

§ Orbital elements

Epoch: 2026-08-13T13:52:57.750816Z

Period
88.61 min
Inclination
42.9906°
Eccentricity
0.0012212
Mean motion
16.25007527 rev/d
Perigee alt
198.0 km
Apogee alt
214.0 km
Semi-major
6,584.1 km
B*
3.0946e-3
RAAN
69.1529°
Arg perigee
280.1582°
Mean anomaly
79.7927°
Rev number
17,038

§ Raw data

STARLINK-301951 57406U 23102C   26225.57844619  .09624767  90339-5  30946-2 0  99952 57406  42.9906  69.1529 0012212 280.1582  79.7927 16.25007527170385

JSON: /api/v1/satellites/57406 · /tle

For live sub-satellite position, see the globe view (requires WebGL).

§ Visibility from observer

Set your observer location to see the next 7 days of passes ≥ 10°. The values pass through the URL so the page stays shareable.

No JS? Fill the form by hand. The geolocation button needs JavaScript.